Weather History for Sioux Falls, SD

Change the Weather History Date:

Thursday, January 3, 2013

  Actual Average Record
Temperature  
Mean Temperature 16 °F 16 °F  
Max Temperature 26 °F 26 °F 47 °F (1962)
Min Temperature 5 °F 7 °F -27 °F (1919)
Degree Days  
Heating Degree Days 49 49  
Month to date heating degree days 149 147  
Since 1 July heating degree days 3089 3280  
Cooling Degree Days 0 0  
Month to date cooling degree days 0 0  
Year to date cooling degree days 0 0  
Moisture  
Dew Point 10 °F    
Average Humidity 81    
Maximum Humidity 88    
Minimum Humidity 73    
Precipitation  
Precipitation T in 0.02 in 0.78 in (1949)
Month to date precipitation T 0.06  
Year to date precipitation T 0.06  
Snow  
Snow 0.10 in 0.20 in 6.00 in (1897)
Month to date snowfall 0.1 0.7  
Since 1 July snowfall 13.9 17.6  
Snow Depth 3.00 in    
Sea Level Pressure  
Sea Level Pressure 30.32 in    
Wind  
Wind Speed 9 mph (WNW)    
Max Wind Speed 26 mph    
Max Gust Speed 33 mph    
Visibility 9 miles    
Events Snow    
T = Trace of Precipitation, MM = Missing Value Source: NWS Daily Summary

Daily Weather History Graph

Daily Weather History Graph

Search for Another Location

Airport:

Trip Planner

Search our weather history database for the weather conditions in past years. The results will help you decide how hot, cold, wet, or windy it might be!

Date:

Astronomy

Jan. 03, 2013 Rise Set
Actual Time 8:00 AM CST 5:03 PM CST
Civil Twilight 7:27 AM CST 5:35 PM CST
Nautical Twilight 6:51 AM CST 6:11 PM CST
Astronomical Twilight 6:17 AM CST 6:46 PM CST
Moon 11:53 PM CST (1/3) 11:00 AM CST (1/3)
Length of Visible Light 10h 07m
Length of Day
9h 02m
Waning Gibbous, 65% of the Moon is Illuminated
Jan 3
Waning Gibbous
Jan 4
Last Quarter
Jan 11
New
Jan 18
First Quarter
Jan 26
Full

Hourly Weather History & Observations

Time (CST) Temp. Windchill Dew Point Humidity Pressure Visibility Wind Dir Wind Speed Gust Speed Precip Events Conditions
12:56 AM 21.0 °F 6.2 °F 16.0 °F 81% 30.26 in 10.0 mi NNW 18.4 mph 25.3 mph N/A   Overcast
1:25 AM 17.6 °F 1.7 °F 12.2 °F 79% 30.21 in 10.0 mi NNW 18.4 mph 28.8 mph N/A   Scattered Clouds
1:56 AM 14.0 °F -2.0 °F 7.0 °F 74% 30.30 in 10.0 mi NNW 16.1 mph 24.2 mph N/A   Clear
2:56 AM 10.9 °F -4.1 °F 5.0 °F 77% 30.32 in 10.0 mi NW 12.7 mph - N/A   Clear
3:56 AM 9.0 °F -7.3 °F 3.9 °F 80% 30.33 in 10.0 mi NW 13.8 mph - N/A   Clear
4:44 AM 8.6 °F -7.0 °F 5.0 °F 85% 30.26 in 6.0 mi NNW 12.7 mph - 0.00 in Snow Light Snow
4:56 AM 9.0 °F -5.9 °F 5.0 °F 84% 30.34 in 9.0 mi NW 11.5 mph - 0.00 in Snow Light Snow
5:56 AM 8.1 °F -8.4 °F 3.9 °F 83% 30.36 in 10.0 mi NW 13.8 mph - 0.00 in   Clear
6:56 AM 7.0 °F -8.3 °F 3.0 °F 84% 30.38 in 10.0 mi NW 11.5 mph - N/A   Clear
7:56 AM 6.1 °F -5.6 °F 1.9 °F 83% 30.40 in 10.0 mi NW 6.9 mph - N/A   Partly Cloudy
8:01 AM 5.0 °F -6.9 °F 1.4 °F 85% 30.31 in 10.0 mi NNW 6.9 mph - N/A   Scattered Clouds
8:12 AM 6.8 °F -3.5 °F 3.2 °F 85% 30.31 in 10.0 mi NW 5.8 mph - N/A   Mostly Cloudy
8:19 AM 8.6 °F -3.7 °F 3.2 °F 79% 30.31 in 10.0 mi NNW 8.1 mph - 0.00 in Snow Light Snow
8:56 AM 10.9 °F 2.9 °F 7.0 °F 84% 30.40 in 6.0 mi WNW 4.6 mph - 0.00 in Snow Light Snow
9:20 AM 12.2 °F 4.3 °F 8.6 °F 85% 30.32 in 2.5 mi NW 4.6 mph - 0.00 in Snow Light Snow
9:56 AM 14.0 °F 6.5 °F 10.0 °F 84% 30.40 in 4.0 mi West 4.6 mph - 0.00 in Snow Light Snow
10:25 AM 15.8 °F 4.2 °F 10.4 °F 79% 30.33 in 6.0 mi NNW 9.2 mph - 0.00 in Snow Light Snow
10:56 AM 16.0 °F 2.9 °F 10.9 °F 81% 30.41 in 8.0 mi NNW 11.5 mph - 0.00 in Snow Light Snow
11:05 AM 17.6 °F 5.0 °F 12.2 °F 79% 30.33 in 8.0 mi NNW 11.5 mph - 0.00 in Snow Light Snow
11:56 AM 18.0 °F 8.7 °F 12.9 °F 81% 30.39 in 9.0 mi West 6.9 mph - 0.00 in Snow Light Snow
12:56 PM 18.0 °F 7.7 °F 12.0 °F 78% 30.36 in 9.0 mi WSW 8.1 mph - 0.00 in   Overcast
1:56 PM 19.0 °F 9.0 °F 14.0 °F 81% 30.35 in 10.0 mi WSW 8.1 mph - N/A   Overcast
2:56 PM 21.0 °F 13.4 °F 16.0 °F 81% 30.35 in 10.0 mi Variable 5.8 mph - N/A   Overcast
3:15 PM 21.2 °F 12.6 °F 15.8 °F 80% 30.26 in 10.0 mi WSW 6.9 mph - N/A   Scattered Clouds
3:56 PM 21.0 °F 13.4 °F 16.0 °F 81% 30.35 in 10.0 mi WSW 5.8 mph - N/A   Partly Cloudy
4:56 PM 19.9 °F 13.4 °F 16.0 °F 85% 30.34 in 10.0 mi SW 4.6 mph - N/A   Clear
5:56 PM 18.0 °F 9.8 °F 14.0 °F 84% 30.34 in 10.0 mi SW 5.8 mph - N/A   Clear
6:56 PM 18.0 °F 11.1 °F 12.9 °F 81% 30.34 in 10.0 mi SW 4.6 mph - N/A   Clear
7:56 PM 18.0 °F 9.8 °F 14.0 °F 84% 30.32 in 10.0 mi SW 5.8 mph - N/A   Clear
8:56 PM 19.0 °F 10.0 °F 14.0 °F 81% 30.28 in 10.0 mi SW 6.9 mph - N/A   Clear
9:56 PM 19.0 °F 8.2 °F 14.0 °F 81% 30.26 in 10.0 mi SW 9.2 mph - N/A   Clear
10:56 PM 18.0 °F 7.7 °F 12.9 °F 81% 30.25 in 10.0 mi SW 8.1 mph - N/A   Clear
11:56 PM 18.0 °F 8.7 °F 12.0 °F 78% 30.23 in 10.0 mi SW 6.9 mph - N/A   Clear